Terminal Aerodrome Forecast
Issued by NWS

Home | Current Version | Previous Version | Text Only | Print | Product List | Glossary On
Versions: 1 2 3 4 5 6 7 8 9 10 11 12 13 14 15 16 17 18 19 20 21 22 23 24 25 26 27 28 29 30 31 32 33 34 35 36 37 38 39 40 41 42 43 44 45 46 47 48 49 50
000
FTUS41 KCTP 010317 AAA
TAFJST
TAF AMD
KJST 010317Z 0103/0124 15006KT P6SM SKC
     FM010400 13004KT P6SM OVC100
     FM010800 15005KT 2SM -SN OVC010
     FM011200 15007KT 1/2SM SN FG OVC003
     FM011800 21009KT 1/2SM -SN FG OVC003=

USA.gov is the U.S. government's official web portal to all federal, state and local government web resources and services.